W9IF-4 Weather Reports


Display with metric or nautical units.
time (UTC)temp
F
wind
direction
speed
MPH
gust
MPH
rain 1hr
in
rain 24hr
in
rain mn
in
humidity
%
barometer
mb
20141024152420 68 75 0.0 0.0 0.00 0.00 0.00 1018.6
20141024152320 68 75 0.0 0.0 0.00 0.00 0.00 1018.6
20141024152220 68 75 0.0 0.0 0.00 0.00 0.00 1018.5
20141024152120 68 75 0.0 0.0 0.00 0.00 0.00 1018.5
20141024152020 68 75 0.0 0.0 0.00 0.00 0.00 1018.5
20141024151920 68 75 0.0 0.0 0.00 0.00 0.00 1018.5
20141024151820 67 75 0.0 0.0 0.00 0.00 0.00 1018.5
20141024151620 67 75 0.0 0.0 0.00 0.00 0.00 1018.5
20141024151520 67 75 0.0 0.0 0.00 0.00 0.00 1018.5
20141024151421 68 75 0.0 0.0 0.00 0.00 0.00 1018.5
20141024151320 68 75 0.0 0.0 0.00 0.00 0.00 1018.5
20141024151120 69 75 0.0 0.0 0.00 0.00 0.00 1018.4
20141024151020 69 75 0.0 0.0 0.00 0.00 0.00 1018.4
20141024150920 70 75 0.0 0.0 0.00 0.00 0.00 1018.4
20141024150820 69 75 0.0 0.0 0.00 0.00 0.00 1018.3
20141024150720 68 75 0.0 0.0 0.00 0.00 0.00 1018.3
20141024150621 68 75 0.0 0.0 0.00 0.00 0.00 1018.3
20141024150520 68 79 0.0 0.0 0.00 0.00 0.00 1018.3
20141024150420 68 79 0.0 0.0 0.00 0.00 0.00 1018.2
20141024150320 68 84 6.0 0.0 0.00 0.00 0.00 1018.3
20141024150220 68 68 3.0 0.0 0.00 0.00 0.00 1018.2
20141024150120 68 108 3.0 0.0 0.00 0.00 0.00 1018.2
20141024150020 68 69 4.0 0.0 0.00 0.00 0.00 1018.2
20141024145920 67 80 5.0 0.0 0.00 0.00 0.00 1018.2
20141024145820 67 91 0.0 0.0 0.00 0.00 0.00 1018.2
20141024145720 67 103 5.0 0.0 0.00 0.00 0.00 1018.2
20141024145620 67 72 3.0 0.0 0.00 0.00 0.00 1018.1
20141024145520 66 65 7.0 0.0 0.00 0.00 0.00 1018.2
20141024145420 66 93 0.0 0.0 0.00 0.00 0.00 1018.2
20141024145320 66 93 0.0 0.0 0.00 0.00 0.00 1018.2
20141024145120 66 93 0.0 0.0 0.00 0.00 0.00 1018.2
20141024145020 66 93 0.0 0.0 0.00 0.00 0.00 1018.2
20141024144920 66 93 0.0 0.0 0.00 0.00 0.00 1018.2
20141024144820 66 93 0.0 0.0 0.00 0.00 0.00 1018.2
20141024144720 66 93 0.0 0.0 0.00 0.00 0.00 1018.2
20141024144620 66 93 0.0 0.0 0.00 0.00 0.00 1018.1
20141024144520 66 93 0.0 0.0 0.00 0.00 0.00 1018.1
20141024144420 67 93 0.0 0.0 0.00 0.00 0.00 1018.1
20141024144320 68 93 0.0 0.0 0.00 0.00 0.00 1018.1
20141024144220 69 93 0.0 0.0 0.00 0.00 0.00 1018.1
20141024144120 69 93 0.0 0.0 0.00 0.00 0.00 1018.1
20141024144020 69 93 0.0 0.0 0.00 0.00 0.00 1018.1
20141024143920 69 93 0.0 0.0 0.00 0.00 0.00 1018.1
20141024143820 69 93 0.0 0.0 0.00 0.00 0.00 1018.1
20141024143720 69 93 0.0 0.0 0.00 0.00 0.00 1018.0
20141024143621 69 63 0.0 0.0 0.00 0.00 0.00 1018.1
20141024143420 68 63 0.0 0.0 0.00 0.00 0.00 1018.0
20141024143320 68 63 0.0 0.0 0.00 0.00 0.00 1017.9
20141024143120 68 63 0.0 0.0 0.00 0.00 0.00 1018.0
20141024143020 68 63 3.0 0.0 0.00 0.00 0.00 1018.0
20141024142920 67 70 0.0 0.0 0.00 0.00 0.00 1018.0
20141024142720 67 70 4.0 0.0 0.00 0.00 0.00 1018.0
20141024142620 66 82 0.0 0.0 0.00 0.00 0.00 1017.9
20141024142520 65 58 0.0 0.0 0.00 0.00 0.00 1017.9
20141024142420 65 80 0.0 0.0 0.00 0.00 0.00 1018.0
20141024142320 64 80 0.0 0.0 0.00 0.00 0.00 1017.9
20141024142220 64 80 0.0 0.0 0.00 0.00 0.00 1017.9
20141024142120 64 80 0.0 0.0 0.00 0.00 0.00 1017.9
20141024142020 64 80 0.0 0.0 0.00 0.00 0.00 1017.9
20141024141920 63 80 0.0 0.0 0.00 0.00 0.00 1017.9
20141024141820 63 97 5.0 0.0 0.00 0.00 0.00 1018.0
20141024141720 64 82 0.0 0.0 0.00 0.00 0.00 1017.9
20141024141620 64 69 0.0 0.0 0.00 0.00 0.00 1017.9
20141024141520 64 69 0.0 0.0 0.00 0.00 0.00 1017.9
20141024141420 64 70 0.0 0.0 0.00 0.00 0.00 1017.9
20141024141320 64 70 0.0 0.0 0.00 0.00 0.00 1017.9
20141024141220 64 76 0.0 0.0 0.00 0.00 0.00 1017.9
20141024141120 64 98 0.0 0.0 0.00 0.00 0.00 1017.9
20141024141020 64 93 0.0 0.0 0.00 0.00 0.00 1017.9
20141024140920 64 93 0.0 0.0 0.00 0.00 0.00 1017.9
20141024140820 64 93 0.0 0.0 0.00 0.00 0.00 1017.9
20141024140721 63 93 0.0 0.0 0.00 0.00 0.00 1017.9
20141024140620 63 93 0.0 0.0 0.00 0.00 0.00 1017.8
20141024140520 64 93 0.0 0.0 0.00 0.00 0.00 1017.8
20141024140420 64 93 0.0 0.0 0.00 0.00 0.00 1017.8
20141024140320 64 93 0.0 0.0 0.00 0.00 0.00 1017.8
20141024140220 63 103 4.0 0.0 0.00 0.00 0.00 1017.8
20141024140120 63 86 3.0 0.0 0.00 0.00 0.00 1017.8
20141024140020 63 280 0.0 0.0 0.00 0.00 0.00 1017.9
20141024135920 63 280 0.0 0.0 0.00 0.00 0.00 1017.9
20141024135820 62 280 0.0 0.0 0.00 0.00 0.00 1017.8
20141024135720 62 280 0.0 0.0 0.00 0.00 0.00 1017.8
20141024135620 62 280 0.0 0.0 0.00 0.00 0.00 1017.8
20141024135520 62 280 0.0 0.0 0.00 0.00 0.00 1017.8
20141024135403 62 280 0.0 0.0 0.00 0.00 0.00 1017.8
20141024135320 62 280 0.0 0.0 0.00 0.00 0.00 1017.8
20141024135220 62 280 0.0 0.0 0.00 0.00 0.00 1017.8
20141024135202 63 280 0.0 0.0 0.00 0.00 0.00 1017.9
20141024135120 62 280 0.0 0.0 0.00 0.00 0.00 1017.9
20141024135108 63 280 0.0 0.0 0.00 0.00 0.00 1017.9
20141024135020 63 280 0.0 0.0 0.00 0.00 0.00 1017.9
20141024134920 63 280 0.0 0.0 0.00 0.00 0.00 1017.9
20141024134820 62 280 0.0 0.0 0.00 0.00 0.00 1017.9
20141024134720 62 280 0.0 0.0 0.00 0.00 0.00 1017.8
20141024134620 62 280 0.0 0.0 0.00 0.00 0.00 1017.8
20141024134520 62 280 0.0 0.0 0.00 0.00 0.00 1017.8
20141024134420 62 280 0.0 0.0 0.00 0.00 0.00 1017.9
20141024134257 63 280 0.0 0.0 0.00 0.00 0.00 1017.8
20141024134220 63 280 0.0 0.0 0.00 0.00 0.00 1017.8
20141024134120 63 280 0.0 0.0 0.00 0.00 0.00 1017.8
20141024134020 63 280 0.0 0.0 0.00 0.00 0.00 1017.8
20141024133920 62 280 0.0 0.0 0.00 0.00 0.00 1017.8
20141024133820 62 280 0.0 0.0 0.00 0.00 0.00 1017.8
20141024133720 62 280 0.0 0.0 0.00 0.00 0.00 1017.8
20141024133622 62 280 0.0 0.0 0.00 0.00 0.00 1017.8
20141024133520 62 280 0.0 0.0 0.00 0.00 0.00 1017.8
20141024133420 62 280 0.0 0.0 0.00 0.00 0.00 1017.7
20141024133320 62 280 0.0 0.0 0.00 0.00 0.00 1017.8
20141024133220 62 280 0.0 0.0 0.00 0.00 0.00 1017.7
20141024133120 62 280 0.0 0.0 0.00 0.00 0.00 1017.7
20141024133020 62 280 0.0 0.0 0.00 0.00 0.00 1017.7
20141024132920 62 280 0.0 0.0 0.00 0.00 0.00 1017.7
20141024132820 62 280 0.0 0.0 0.00 0.00 0.00 1017.7
20141024132720 62 280 0.0 0.0 0.00 0.00 0.00 1017.7
20141024132620 61 280 0.0 0.0 0.00 0.00 0.00 1017.7
20141024132601 61 280 0.0 0.0 0.00 0.00 0.00 1017.7
20141024132520 61 280 0.0 0.0 0.00 0.00 0.00 1017.7
20141024132420 61 280 0.0 0.0 0.00 0.00 0.00 1017.7
20141024132320 62 280 0.0 0.0 0.00 0.00 0.00 1017.7
20141024132120 61 280 0.0 0.0 0.00 0.00 0.00 1017.7
20141024132020 61 280 0.0 0.0 0.00 0.00 0.00 1017.7
20141024132009 61 280 0.0 0.0 0.00 0.00 0.00 1017.7
20141024131920 61 280 0.0 0.0 0.00 0.00 0.00 1017.7
20141024131820 61 280 0.0 0.0 0.00 0.00 0.00 1017.7
20141024131720 61 280 0.0 0.0 0.00 0.00 0.00 1017.7
20141024131621 61 280 0.0 0.0 0.00 0.00 0.00 1017.7
20141024131520 61 280 0.0 0.0 0.00 0.00 0.00 1017.7
20141024131420 61 280 0.0 0.0 0.00 0.00 0.00 1017.7
20141024131320 61 280 0.0 0.0 0.00 0.00 0.00 1017.7
20141024131220 61 280 0.0 0.0 0.00 0.00 0.00 1017.7
20141024131120 61 280 0.0 0.0 0.00 0.00 0.00 1017.7
20141024131020 61 280 0.0 0.0 0.00 0.00 0.00 1017.7
20141024130920 62 280 0.0 0.0 0.00 0.00 0.00 1017.7
20141024130748 62 280 0.0 0.0 0.00 0.00 0.00 1017.7
20141024130720 62 280 0.0 0.0 0.00 0.00 0.00 1017.7
20141024130620 62 280 0.0 0.0 0.00 0.00 0.00 1017.7
20141024130523 62 280 0.0 0.0 0.00 0.00 0.00 1017.7
20141024130520 62 280 0.0 0.0 0.00 0.00 0.00 1017.7
20141024130423 62 280 0.0 0.0 0.00 0.00 0.00 1017.7
20141024130420 62 280 0.0 0.0 0.00 0.00 0.00 1017.7
20141024130320 62 280 0.0 0.0 0.00 0.00 0.00 1017.7
20141024130254 62 280 0.0 0.0 0.00 0.00 0.00 1017.7
20141024130220 62 280 0.0 0.0 0.00 0.00 0.00 1017.7
20141024130208 62 280 0.0 0.0 0.00 0.00 0.00 1017.7
20141024130120 62 280 0.0 0.0 0.00 0.00 0.00 1017.7
20141024130020 62 280 0.0 0.0 0.00 0.00 0.00 1017.7
20141024130018 61 280 0.0 0.0 0.00 0.00 0.00 1017.7
20141024125920 61 280 0.0 0.0 0.00 0.00 0.00 1017.7
20141024125858 62 280 0.0 0.0 0.00 0.00 0.00 1017.7
20141024125820 61 280 0.0 0.0 0.00 0.00 0.00 1017.7
20141024125720 62 280 0.0 0.0 0.00 0.00 0.00 1017.7
20141024125620 61 280 0.0 0.0 0.00 0.00 0.00 1017.7
20141024125520 61 280 0.0 0.0 0.00 0.00 0.00 1017.7
20141024125420 62 280 0.0 0.0 0.00 0.00 0.00 1017.7
20141024125320 62 280 0.0 0.0 0.00 0.00 0.00 1017.7
20141024125220 62 280 0.0 0.0 0.00 0.00 0.00 1017.7
20141024125120 62 280 0.0 0.0 0.00 0.00 0.00 1017.7
20141024125020 62 280 0.0 0.0 0.00 0.00 0.00 1017.7
20141024124920 62 280 0.0 0.0 0.00 0.00 0.00 1017.7
20141024124820 63 280 0.0 0.0 0.00 0.00 0.00 1017.7
20141024124752 63 280 0.0 0.0 0.00 0.00 0.00 1017.7
20141024124720 62 280 0.0 0.0 0.00 0.00 0.00 1017.7
20141024124620 63 280 0.0 0.0 0.00 0.00 0.00 1017.7
20141024124532 63 280 0.0 0.0 0.00 0.00 0.00 1017.7
20141024124520 63 280 0.0 0.0 0.00 0.00 0.00 1017.7
20141024124430 63 280 0.0 0.0 0.00 0.00 0.00 1017.6
20141024124420 63 280 0.0 0.0 0.00 0.00 0.00 1017.7
20141024124320 63 280 0.0 0.0 0.00 0.00 0.00 1017.7
20141024124245 63 280 0.0 0.0 0.00 0.00 0.00 1017.7
20141024124220 63 280 0.0 0.0 0.00 0.00 0.00 1017.6
20141024124126 62 280 0.0 0.0 0.00 0.00 0.00 1017.6
20141024124120 63 280 0.0 0.0 0.00 0.00 0.00 1017.7
20141024124020 62 280 0.0 0.0 0.00 0.00 0.00 1017.6
20141024123956 62 280 0.0 0.0 0.00 0.00 0.00 1017.7
20141024123920 62 280 0.0 0.0 0.00 0.00 0.00 1017.6
20141024123848 62 280 0.0 0.0 0.00 0.00 0.00 1017.6
20141024123820 62 280 0.0 0.0 0.00 0.00 0.00 1017.7
20141024123720 62 280 0.0 0.0 0.00 0.00 0.00 1017.6
20141024123621 62 280 0.0 0.0 0.00 0.00 0.00 1017.6
20141024123520 62 280 0.0 0.0 0.00 0.00 0.00 1017.6
20141024123420 61 280 0.0 0.0 0.00 0.00 0.00 1017.6
20141024123410 61 280 0.0 0.0 0.00 0.00 0.00 1017.6
20141024123320 61 280 0.0 0.0 0.00 0.00 0.00 1017.7
20141024123220 61 280 0.0 0.0 0.00 0.00 0.00 1017.6
20141024123203 61 280 0.0 0.0 0.00 0.00 0.00 1017.7
20141024123120 61 280 0.0 0.0 0.00 0.00 0.00 1017.6
20141024123020 61 280 0.0 0.0 0.00 0.00 0.00 1017.7
20141024122920 62 280 0.0 0.0 0.00 0.00 0.00 1017.7
20141024122904 62 280 0.0 0.0 0.00 0.00 0.00 1017.6
20141024122820 62 280 0.0 0.0 0.00 0.00 0.00 1017.6
20141024122720 62 280 0.0 0.0 0.00 0.00 0.00 1017.6
20141024122620 62 280 0.0 0.0 0.00 0.00 0.00 1017.6
20141024122559 62 280 0.0 0.0 0.00 0.00 0.00 1017.6
20141024122520 62 280 0.0 0.0 0.00 0.00 0.00 1017.6
20141024122420 62 280 0.0 0.0 0.00 0.00 0.00 1017.6
20141024122412 62 280 0.0 0.0 0.00 0.00 0.00 1017.6
20141024122320 62 280 0.0 0.0 0.00 0.00 0.00 1017.6
20141024122303 63 280 0.0 0.0 0.00 0.00 0.00 1017.6
20141024122220 62 280 0.0 0.0 0.00 0.00 0.00 1017.6
20141024122204 63 280 0.0 0.0 0.00 0.00 0.00 1017.6
20141024122120 63 280 0.0 0.0 0.00 0.00 0.00 1017.6
20141024122020 63 280 0.0 0.0 0.00 0.00 0.00 1017.6
20141024121920 63 280 0.0 0.0 0.00 0.00 0.00 1017.6
20141024121738 62 280 0.0 0.0 0.00 0.00 0.00 1017.6
20141024121720 63 280 0.0 0.0 0.00 0.00 0.00 1017.6
20141024121620 62 280 0.0 0.0 0.00 0.00 0.00 1017.6
20141024121547 63 280 0.0 0.0 0.00 0.00 0.00 1017.6
20141024121521 62 280 0.0 0.0 0.00 0.00 0.00 1017.6
20141024121420 63 280 0.0 0.0 0.00 0.00 0.00 1017.6
20141024121353 62 280 0.0 0.0 0.00 0.00 0.00 1017.6
20141024121320 63 280 0.0 0.0 0.00 0.00 0.00 1017.6
20141024121246 61 280 0.0 0.0 0.00 0.00 0.00 1017.6
20141024121220 62 280 0.0 0.0 0.00 0.00 0.00 1017.6
20141024121142 61 280 0.0 0.0 0.00 0.00 0.00 1017.6
20141024121120 61 280 0.0 0.0 0.00 0.00 0.00 1017.6
20141024121020 61 280 0.0 0.0 0.00 0.00 0.00 1017.6
20141024121009 62 280 0.0 0.0 0.00 0.00 0.00 1017.6
20141024120920 62 280 0.0 0.0 0.00 0.00 0.00 1017.6
20141024120820 62 280 0.0 0.0 0.00 0.00 0.00 1017.6
20141024120730 61 280 0.0 0.0 0.00 0.00 0.00 1017.6
20141024120720 62 280 0.0 0.0 0.00 0.00 0.00 1017.6
20141024120644 62 280 0.0 0.0 0.00 0.00 0.00 1017.6
20141024120620 61 280 0.0 0.0 0.00 0.00 0.00 1017.6
20141024120614 62 280 0.0 0.0 0.00 0.00 0.00 1017.5
20141024120520 62 280 0.0 0.0 0.00 0.00 0.00 1017.6
20141024120420 62 280 0.0 0.0 0.00 0.00 0.00 1017.5
20141024120411 61 280 0.0 0.0 0.00 0.00 0.00 1017.5
20141024120320 62 280 0.0 0.0 0.00 0.00 0.00 1017.5
20141024120309 61 280 0.0 0.0 0.00 0.00 0.00 1017.5
20141024120220 61 280 0.0 0.0 0.00 0.00 0.00 1017.5
20141024120213 62 280 0.0 0.0 0.00 0.00 0.00 1017.5
20141024120120 61 280 0.0 0.0 0.00 0.00 0.00 1017.5
20141024120037 62 280 0.0 0.0 0.00 0.00 0.00 1017.5
20141024120020 62 280 0.0 0.0 0.00 0.00 0.00 1017.5
20141024115936 61 280 0.0 0.0 0.00 0.00 0.00 1017.5
20141024115920 62 280 0.0 0.0 0.00 0.00 0.00 1017.5
20141024115820 62 280 0.0 0.0 0.00 0.00 0.00 1017.5
20141024115720 61 280 0.0 0.0 0.00 0.00 0.00 1017.5
20141024115703 61 280 0.0 0.0 0.00 0.00 0.00 1017.5
20141024115620 62 280 0.0 0.0 0.00 0.00 0.00 1017.5
20141024115547 61 280 0.0 0.0 0.00 0.00 0.00 1017.5
20141024115520 61 280 0.0 0.0 0.00 0.00 0.00 1017.5
20141024115451 62 280 0.0 0.0 0.00 0.00 0.00 1017.5
20141024115420 61 280 0.0 0.0 0.00 0.00 0.00 1017.5
20141024115332 61 280 0.0 0.0 0.00 0.00 0.00 1017.6
20141024115320 62 280 0.0 0.0 0.00 0.00 0.00 1017.5
20141024115305 61 280 0.0 0.0 0.00 0.00 0.00 1017.5
20141024115220 61 280 0.0 0.0 0.00 0.00 0.00 1017.6
20141024115211 61 280 0.0 0.0 0.00 0.00 0.00 1017.6
20141024115120 61 280 0.0 0.0 0.00 0.00 0.00 1017.5
20141024115020 61 280 0.0 0.0 0.00 0.00 0.00 1017.6
20141024114957 61 280 0.0 0.0 0.00 0.00 0.00 1017.6
20141024114920 61 280 0.0 0.0 0.00 0.00 0.00 1017.6
20141024114820 61 280 0.0 0.0 0.00 0.00 0.00 1017.6
20141024114720 61 280 0.0 0.0 0.00 0.00 0.00 1017.5
20141024114620 61 280 0.0 0.0 0.00 0.00 0.00 1017.6
20141024114539 61 280 0.0 0.0 0.00 0.00 0.00 1017.6
20141024114520 61 280 0.0 0.0 0.00 0.00 0.00 1017.6
20141024114438 61 280 0.0 0.0 0.00 0.00 0.00 1017.6
20141024114420 61 280 0.0 0.0 0.00 0.00 0.00 1017.5
20141024114320 61 280 0.0 0.0 0.00 0.00 0.00 1017.6
20141024114220 61 280 0.0 0.0 0.00 0.00 0.00 1017.6
20141024114159 60 280 0.0 0.0 0.00 0.00 0.00 1017.5
20141024114120 60 280 0.0 0.0 0.00 0.00 0.00 1017.6
20141024114020 60 280 0.0 0.0 0.00 0.00 0.00 1017.5
20141024113940 61 280 0.0 0.0 0.00 0.00 0.00 1017.5
20141024113920 61 280 0.0 0.0 0.00 0.00 0.00 1017.6
20141024113820 61 280 0.0 0.0 0.00 0.00 0.00 1017.5
20141024113759 61 280 0.0 0.0 0.00 0.00 0.00 1017.5
20141024113720 61 280 0.0 0.0 0.00 0.00 0.00 1017.5
20141024113620 61 280 0.0 0.0 0.00 0.00 0.00 1017.5
20141024113602 61 280 0.0 0.0 0.00 0.00 0.00 1017.5
20141024113520 61 280 0.0 0.0 0.00 0.00 0.00 1017.5
20141024113420 61 280 0.0 0.0 0.00 0.00 0.00 1017.5
20141024113322 61 280 0.0 0.0 0.00 0.00 0.00 1017.5
20141024113320 60 280 0.0 0.0 0.00 0.00 0.00 1017.5
20141024113219 61 280 0.0 0.0 0.00 0.00 0.00 1017.5
20141024113120 61 280 0.0 0.0 0.00 0.00 0.00 1017.5
20141024113020 62 280 0.0 0.0 0.00 0.00 0.00 1017.5
20141024112919 62 280 0.0 0.0 0.00 0.00 0.00 1017.5
20141024112819 62 280 0.0 0.0 0.00 0.00 0.00 1017.5
20141024112758 62 280 0.0 0.0 0.00 0.00 0.00 1017.5
20141024112720 62 280 0.0 0.0 0.00 0.00 0.00 1017.5
20141024112619 62 280 0.0 0.0 0.00 0.00 0.00 1017.5